Regional Weather Roundup
Issued by NWS

Home | Current Version | Previous Version | Text Only | Print | Product List | Glossary Off
Versions: 1 2 3 4 5 6 7 8 9 10 11 12 13 14 15 16 17 18 19 20 21 22 23 24 25 26 27 28 29 30 31 32 33 34 35 36 37 38 39 40 41 42 43 44 45 46 47 48 49 50

000
ASUS43 KLOT 280708
RWRIL

ILLINOIS REGIONAL WEATHER ROUNDUP
NATIONAL WEATHER SERVICE CHICAGO/ROMEOVILLE IL
200 AM CDT FRI APR 28 2017

NOTE: "FAIR" INDICATES FEW OR NO CLOUDS BELOW 12,000 FEET WITH NO
SIGNIFICANT WEATHER AND/OR OBSTRUCTIONS TO VISIBILITY.

* THESE STATIONS ARE NOT UNDER NWS QUALITY CONTROL. THEY ALSO MAY NOT
  REPORT WEATHER SUCH AS PRECIPITATION OR FOG.

ILZ001-002-007-009-015-016-024-280800-
NORTHWEST ILLINOIS

CITY           SKY/WX    TMP DP  RH WIND       PRES   REMARKS
MOLINE         MOCLDY    39  36  89 CALM      29.87S
STERLING*      PTCLDY    37  36  96 CALM      29.88F
SAVANNA*       PTCLDY    34  32  94 CALM      29.88F
$$

ILZ003-004-008-010-011-017-018-280800-
NORTH CENTRAL ILLINOIS

CITY           SKY/WX    TMP DP  RH WIND       PRES   REMARKS
ROCKFORD       CLOUDY    40  33  76 W6        29.89F
FREEPORT*      CLOUDY    35  32  87 SW5       29.89F WCI  31
ROCHELLE*      PTCLDY    37  36  95 CALM      29.88F
DE KALB*       PTCLDY    39  36  89 W5        29.88S
PERU*          CLOUDY    40  38  92 NE3       29.87F
$$

ILZ005-006-012>014-019>023-280800-
NORTHEAST ILLINOIS

CITY           SKY/WX    TMP DP  RH WIND       PRES   REMARKS
CHICAGO-OHARE  MOCLDY    43  37  79 W6        29.87S
CHICAGO-MIDWAY CLOUDY    43  38  82 CALM      29.88S
AURORA         MOCLDY    38  37  97 CALM      29.88F
LANSING*       PTCLDY    41  41  98 W3        29.88F
JOLIET*        PTCLDY    40  40 100 CALM      29.88F FOG
WAUKEGAN       CLOUDY    43  36  76 SW9       29.85S
DUPAGE AIRPORT MOCLDY    40  39  97 W5        29.87S
KANKAKEE*      CLOUDY    44  42  91 CALM      29.89F
WHEELING       MOCLDY    42  38  85 S5        29.88S
MORRIS*        CLOUDY    40  39  95 CALM      29.88S
ROMEOVILLE*    CLOUDY    39  38  99 CALM      29.88F
NORTHERLY ISL    N/A     44  37  76 SW2         N/A
$$

LMZ740>746-280800-
SOUTHERN LAKE MICHIGAN

STATION/POSITION SKY/WX   TEMP    WIND        PRES    VSBY  WAVE
                          AIR SEA DIR/SP/G                  HT/PER
                          (F)     (DEG/KT/KT) (MB)    (MI)  (FT/S)
SOUTHERN BUOY              43 41  250/ 14/ 17 1011.3          3/ 4
HARRISON CRIB              47     210/ 10/ 12   N/A
BURNHAM HARBOR             44      CALM  /  7   N/A
CALUMET HARBOR             43     230/  3/  4 1011.4F
BURNS HARBOR               45     240/  5/  7 1012.9R
MICHIGAN CITY              45     180/  4/  5   N/A
MICHIGAN CITY 6N           46 47                N/A           2/ 4
ST. JOSEPH                 45 48  260/  6/  8 1012.8          3/ 5
$$

ILZ025>027-034>036-040-047-049-050-058-095>099-280800-
WEST-CENTRAL ILLINOIS

CITY           SKY/WX    TMP DP  RH WIND       PRES   REMARKS
QUINCY         CLOUDY    51  45  79 SE6       29.82R
GALESBURG*     CLOUDY    46  43  89 CALM      29.83F
MACOMB*        CLOUDY    48  46  92 CALM      29.85S
JACKSONVILLE*  CLOUDY    50  46  83 CALM      29.84R
PITTSFIELD*    CLOUDY    51  47  85 SE5       29.85R
$$

ILZ028>032-037-038-041>044-048-051>054-059>061-280800-
CENTRAL ILLINOIS

CITY           SKY/WX    TMP DP  RH WIND       PRES   REMARKS
PONTIAC        MOCLDY    48  47  95 S7        29.89S
BLOOMINGTON    LGT RAIN  48  45  89 E6        29.86F
DECATUR        CLOUDY    48  46  93 SE9       29.85F
PEORIA         CLOUDY    49  45  86 NE7       29.84F
LACON*         CLOUDY    45  44  96 SE3       29.86S
LINCOLN*       CLOUDY    50  48  94 CALM      29.83F
SPRINGFIELD    CLOUDY    51  47  86 SE6       29.84F
TAYLORVILLE    CLOUDY    50  45  83 E8        29.84S
$$

ILZ033-039-045-046-055>057-062-063-280800-
EAST-CENTRAL ILLINOIS

CITY           SKY/WX    TMP DP  RH WIND       PRES   REMARKS
CHAMPAIGN      CLOUDY    48  43  82 SE6       29.90F
RANTOUL*       MOCLDY    49  46  91 S3        29.91S
MATTOON        CLOUDY    46  45  96 E5        29.86F
PARIS*         MOCLDY    45  45 100 E6        29.91F
$$

ILZ079-100>102-280800-
SOUTHWEST ILLINOIS

CITY           SKY/WX    TMP DP  RH WIND       PRES   REMARKS
ALTON          CLOUDY    52  48  87 E8        29.83F
BELLEVILLE     MOCLDY    53  52  99 CALM      29.83F
CAHOKIA*       CLOUDY    54  49  83 SE6       29.82F
SPARTA*        CLOUDY    54  48  82 SE8       29.83F
$$

ILZ064>066-069>071-074>076-080>082-084>086-088>090-092>094-280800-
SOUTH-CENTRAL ILLINOIS

CITY           SKY/WX    TMP DP  RH WIND       PRES   REMARKS
CARBONDALE     CLOUDY    53  50  89 SE3       29.86S
CAIRO*         CLOUDY    55  51  88 N3        29.86R
EFFINGHAM*     MOCLDY    49  49  99 E6        29.87F
MARION         CLOUDY    54  54 100 E3        29.88F
MT. VERNON     CLOUDY    50  48  93 CALM      29.89R
CENTRALIA*     CLOUDY    52  49  90 S6        29.87S
SALEM*         PTCLDY    51  47  87 SE6       29.87R
METROPOLIS*    CLOUDY    53  51  91 CALM      29.88R
$$

ILZ067-068-072-073-078-083-087-091-280800-
SOUTHEAST ILLINOIS

CITY           SKY/WX    TMP DP  RH WIND       PRES   REMARKS
LAWRENCEVILLE  MOCLDY    46  46 100 E6        29.91F
FLORA*         MOCLDY    50  47  92 SE3       29.89S
FAIRFIELD*     CLOUDY    51  48  90 CALM      29.89R
HARRISBURG*    PTCLDY    51  50  95 E3        29.88F
ROBINSON*      CLOUDY    45  45  99 S3        29.92F
CARMI*         PTCLDY    49  49  99 E7        29.88F
$$

ABBREVIATIONS USED IN REMARKS
   TC - TEMPERATURE IN CELSIUS
  WCI - WIND CHILL INDEX
   HX - HEAT INDEX
  VSB - VISIBILITY
$$




USA.gov is the U.S. government's official web portal to all federal, state and local government web resources and services.